Regional Weather Roundup
Issued by NWS

Home | Current Version | Previous Version | Graphics & Text | Print | Product List | Glossary On
Versions: 1 2 3 4 5 6 7 8 9 10 11 12 13 14 15 16 17 18 19 20 21 22 23 24 25 26 27 28 29 30 31 32 33 34 35 36 37 38 39 40 41 42 43 44 45 46 47 48 49 50
000
ASUS43 KLOT 260503
RWRIL

ILLINOIS REGIONAL WEATHER ROUNDUP
NATIONAL WEATHER SERVICE CHICAGO/ROMEOVILLE IL
1200 AM CDT THU APR 26 2018

NOTE: "FAIR" INDICATES FEW OR NO CLOUDS BELOW 12,000 FEET WITH NO
SIGNIFICANT WEATHER AND/OR OBSTRUCTIONS TO VISIBILITY.

* THESE STATIONS ARE NOT UNDER NWS QUALITY CONTROL. THEY ALSO MAY NOT
  REPORT WEATHER SUCH AS PRECIPITATION OR FOG.

ILZ001-002-007-009-015-016-024-260600-
NORTHWEST ILLINOIS

CITY           SKY/WX    TMP DP  RH WIND       PRES   REMARKS
MOLINE         FAIR      42  33  70 CALM      29.97F
STERLING*      FAIR      40  32  73 E7        30.01R
SAVANNA*       FAIR      42  32  68 SE6       29.99F
$$

ILZ003-004-008-010-011-017-018-260600-
NORTH CENTRAL ILLINOIS

CITY           SKY/WX    TMP DP  RH WIND       PRES   REMARKS
ROCKFORD       FAIR      38  29  70 S3        30.02S
FREEPORT*      FAIR      38  31  77 E7        30.02R WCI  32
ROCHELLE*      FAIR      37  29  74 E5        30.02S WCI  33
DE KALB*       FAIR      37  29  73 SE3       30.01F
$$

ILZ005-006-012>014-019>023-260600-
NORTHEAST ILLINOIS

CITY           SKY/WX    TMP DP  RH WIND       PRES   REMARKS
CHICAGO-OHARE  FAIR      39  29  67 N3        29.99F
CHICAGO-MIDWAY FAIR      43  29  57 CALM      30.00F
AURORA         FAIR      36  28  73 CALM      30.00F
LANSING*       FAIR      34  33  97 CALM      30.00F
JOLIET*        FAIR      38  31  78 CALM      30.01S
WAUKEGAN       FAIR      31  28  89 CALM      30.00F
DUPAGE AIRPORT FAIR      37  30  75 CALM      29.99F
KANKAKEE*      FAIR      37  30  76 CALM      30.02S
WHEELING       FAIR      38  30  73 CALM      30.02F
MORRIS*        FAIR      39  31  71 CALM      30.01S
ROMEOVILLE*    FAIR      37  31  77 CALM      30.01S
NORTHERLY ISL    N/A     40  29  65 N3          N/A
$$

LMZ740>746-260600-
SOUTHERN LAKE MICHIGAN

STATION/POSITION SKY/WX   TEMP    WIND        PRES    VSBY  WAVE
                          AIR SEA DIR/SP/G                  HT/PER
                          (F)     (DEG/KT/KT) (MB)    (MI)  (FT/S)
HARRISON CRIB              42     330/  6/  6   N/A
BURNHAM HARBOR             40     350/  3/  5   N/A
CALUMET HARBOR             40     300/  2/  2 1015.7
BURNS HARBOR               40     320/  5/  7 1016.6F
MICHIGAN CITY              38     280/  9/  9   N/A
ST. JOSEPH                 41 43  360/  8/ 12 1016.2F         3/ 6
$$

ILZ025>027-034>036-040-047-049-050-058-095>099-260600-
WEST-CENTRAL ILLINOIS

CITY           SKY/WX    TMP DP  RH WIND       PRES   REMARKS
QUINCY         PTCLDY    48  38  68 NW5       29.97F
GALESBURG*     FAIR      42  34  75 NW3       29.98F
MACOMB*        CLOUDY    44  34  67 W3        30.00S
JACKSONVILLE*  CLOUDY    48  39  71 N5        29.97S
PITTSFIELD*    CLOUDY    51  41  68 W3        29.99S
$$

ILZ028>032-037-038-041>044-048-051>054-059>061-260600-
CENTRAL ILLINOIS

CITY           SKY/WX    TMP DP  RH WIND       PRES   REMARKS
PONTIAC        FAIR      36  32  84 E7        30.02F WCI  30
BLOOMINGTON    FAIR      40  34  79 E10       30.01S
DECATUR        FAIR      43  36  76 E6        29.98S
PEORIA         FAIR      47  34  60 E8        29.99S
LACON*         FAIR      41  32  69 E3        30.00S
LINCOLN*       FAIR      44  37  74 NE6       29.99S
SPRINGFIELD    FAIR      51  39  63 E8        29.97S
TAYLORVILLE    FAIR      51  37  57 E6        29.97F
$$

ILZ033-039-045-046-055>057-062-063-260600-
EAST-CENTRAL ILLINOIS

CITY           SKY/WX    TMP DP  RH WIND       PRES   REMARKS
CHAMPAIGN      FAIR      44  33  65 NE12      29.99S
DANVILLE*      FAIR      38  33  82 N6        29.98S WCI  33
RANTOUL*       FAIR      43  35  73 NE7       30.00F
MATTOON        FAIR      48  35  60 E10       29.97S
PARIS*         FAIR      46  33  61 NE7       29.99F
$$

ILZ079-100>102-260600-
SOUTHWEST ILLINOIS

CITY           SKY/WX    TMP DP  RH WIND       PRES   REMARKS
ALTON          CLOUDY    55  46  70 NE5       29.96S
BELLEVILLE     CLOUDY    55  55  97 SW6       29.94F
CAHOKIA*       LGT RAIN  55  53  93 SW3       29.95F
SPARTA*        RAIN      54  54 100 CALM      29.96F
$$

ILZ064>066-069>071-074>076-080>082-084>086-088>090-092>094-260600-
SOUTH-CENTRAL ILLINOIS

CITY           SKY/WX    TMP DP  RH WIND       PRES   REMARKS
CARBONDALE     LGT RAIN  55  53  93 MISG      29.95F
CAIRO*         CLOUDY    57  54  92 NE9       29.93S
EFFINGHAM*     FAIR      53  39  59 NE3       29.98S
MARION         LGT RAIN  54  53  98 CALM      29.95F
MT. VERNON     LGT RAIN  56  55  97 N3        29.95S
CENTRALIA*     CLOUDY    56  55  94 CALM      29.95S
SALEM*         CLOUDY    58  40  50 NE6       29.95F
METROPOLIS*    LGT RAIN  56  55  95 N5        29.93F
$$

ILZ067-068-072-073-078-083-087-091-260600-
SOUTHEAST ILLINOIS

CITY           SKY/WX    TMP DP  RH WIND       PRES   REMARKS
LAWRENCEVILLE  FAIR      55  36  48 MISG      29.96S
FLORA*         FAIR      57  40  53 NE7       29.96S
FAIRFIELD*     CLOUDY    58  43  57 NE8       29.93S
HARRISBURG*    HVY RAIN  56  56  97 N9        29.94F
ROBINSON*      FAIR      50  35  55 NE9       29.98S
CARMI*         CLOUDY    59  52  78 NW6       29.93S
$$

ABBREVIATIONS USED IN REMARKS
   TC - TEMPERATURE IN CELSIUS
  WCI - WIND CHILL INDEX
   HX - HEAT INDEX
  VSB - VISIBILITY
$$





USA.gov is the U.S. government's official web portal to all federal, state and local government web resources and services.